Miscellaneous Local Product
Issued by NWS Hastings, NE

Home | Current Version | Previous Version | Graphics & Text | Print | Product List | Glossary Off
Versions: 1 2 3 4 5 6 7 8 9 10 11 12 13 14 15 16 17 18 19 20 21 22 23 24 25 26 27 28 29 30 31 32 33 34 35 36 37 38 39 40 41 42 43 44 45 46 47 48 49 50

000
AXUS43 KGID 221402
MISGRI

GID CWA HOURLY WEATHER ROUNDUP
NATIONAL WEATHER SERVICE HASTINGS NE
900 AM CDT THU JUN 22 2017

NOTE: "FAIR" INDICATES FEW OR NO CLOUDS BELOW 12,000 FEET WITH NO
SIGNIFICANT WEATHER AND/OR OBSTRUCTIONS TO VISIBILITY.

...SOUTH CENTRAL NEBRASKA...

CITY           SKY/WX    TMP DP  RH WIND       PRES   REMARKS
GRAND ISLAND   SUNNY     78  61  55 S17G28    29.64F
HASTINGS       SUNNY     76  60  57 S12       29.67F
KEARNEY        SUNNY     79  59  50 S15G22    29.64F
ORD            SUNNY     76  58  53 CALM      29.64R
YORK           CLOUDY    81  63  54 SW14G20   29.65S
AURORA         SUNNY     78  60  54 SW17G23   29.65F
LEXINGTON      SUNNY     76  61  59 SW12      29.64F
HOLDREGE       SUNNY     76  59  55 S20G26    29.64F
HEBRON         SUNNY     77  62  59 SW15G24   29.68R

...NEBRASKA PANHANDLE...

CITY           SKY/WX    TMP DP  RH WIND       PRES   REMARKS
CHADRON        SUNNY     66  49  54 N12       29.87R
ALLIANCE       SUNNY     64  52  64 N14       29.84R
SCOTTSBLUFF    SUNNY     68  51  54 NW9       29.87R
SIDNEY         SUNNY     76  50  40 NW18G28   29.85R

...WESTERN AND NORTH CENTRAL NEBRASKA...

CITY           SKY/WX    TMP DP  RH WIND       PRES   REMARKS
VALENTINE      PTSUNNY   69  50  50 NE30G36   29.77R
AINSWORTH      SUNNY     70  61  72 E17G25    29.72R
ONEILL         CLOUDY    71  69  95 E12       29.68F
BROKEN BOW     SUNNY     77  61  57 SW8       29.64S
IMPERIAL       SUNNY     79  48  33 W9        29.72R
NORTH PLATTE   SUNNY     79  55  43 W8        29.65F
MCCOOK         SUNNY     82  58  43 W12       29.66F

...EASTERN NEBRASKA...

CITY           SKY/WX    TMP DP  RH WIND       PRES   REMARKS
NORFOLK        SUNNY     77  59  53 SE5       29.66S
SO SIOUX CITY  SUNNY     80  64  58 SW8       29.63F
TEKAMAH        SUNNY     81  61  50 S8        29.65F
ALBION         MOSUNNY   79  60  51 SW5       29.67R
OMAHA EPPLEY   CLOUDY    78  60  53 S15       29.67S
OFFUTT AFB     CLOUDY    75  61  60 SE8       29.67F
MILLARD        CLOUDY    79  63  58 SE12      29.67S
LINCOLN        MOSUNNY   78  63  59 S13       29.66F
NEBRASKA CITY  CLOUDY    74  64  70 S10       29.69F
BEATRICE       PTSUNNY   77  64  63 S14       29.69S
FALLS CITY     CLOUDY    75  64  68 S12       29.72S

...NORTHERN KANSAS...

CITY           SKY/WX    TMP DP  RH WIND       PRES   REMARKS
GOODLAND       SUNNY     81  54  39 W16G24    29.75S
HILL CITY      SUNNY     78  63  59 S8        29.68F
NORTON         SUNNY     79  55  44 S7        29.66S
PHILLIPSBURG   SUNNY     81  57  44 SE10      29.68S
SMITH CENTER   MOSUNNY   73  63  68 S10       29.69F
HAYS           SUNNY     78  61  55 S16       29.71F
RUSSELL        SUNNY     77  59  53 S18       29.71F
CONCORDIA      SUNNY     76  63  64 S20G26    29.69F
SALINA         MOSUNNY   79  63  57 S23G30    29.73F
TOPEKA         SUNNY     77  69  76 S12       29.75F



USA.gov is the U.S. government's official web portal to all federal, state and local government web resources and services.